KB4JHU-15 Weather Reports


time (UTC)temp
F
wind
direction
speed
knots
gust
knots
rain 1hr
in
rain 24hr
in
rain mn
in
humidity
%
barometer
mb
20260901152449 90 246 1.7 1.7 0.00 0.00 0.00 50
20260901145448 88 278 1.7 1.7 0.00 0.00 0.00 55
20260901142447 86 252 1.7 1.7 0.00 0.00 0.00 59
20260901135446 83 190 0.9 0.9 0.00 0.00 0.00 68
20260901132445 80 360 0.0 0.0 0.00 0.00 0.00 79
20260901125444 74 360 0.0 0.0 0.00 0.00 0.00 91
20260901122443 71 360 0.0 0.0 0.00 0.00 0.00 94
20260901115442 70 360 0.0 0.0 0.00 0.00 0.00 94
20260901112441 70 360 0.0 0.0 0.00 0.00 0.00 94
20260901105440 70 360 0.0 0.0 0.00 0.00 0.00 94
20260901102439 71 360 0.0 0.0 0.00 0.00 0.00 94
20260901095438 71 360 0.0 0.0 0.00 0.00 0.00 94
20260901092437 71 360 0.0 0.0 0.00 0.00 0.00 94
20260901085436 72 360 0.0 0.0 0.00 0.00 0.00 92
20260901082435 71 360 0.0 0.0 0.00 0.00 0.00 92
20260901075434 72 360 0.0 0.0 0.00 0.00 0.00 92
20260901072433 73 360 0.0 0.0 0.00 0.00 0.00 91
20260901065432 74 360 0.0 0.0 0.00 0.00 0.00 90
20260901062431 74 360 0.0 0.0 0.00 0.00 0.00 89
20260901055430 74 360 0.0 0.0 0.00 0.00 0.00 88
20260901052429 75 360 0.0 0.0 0.00 0.00 0.00 87
20260901045428 75 360 0.0 0.0 0.00 0.00 0.00 84
20260901042427 77 360 0.0 0.0 0.00 0.00 0.00 82
20260901035426 79 360 0.0 0.0 0.00 0.00 0.00 82
20260901032425 77 360 0.0 0.0 0.00 0.00 0.00 81
20260901025424 78 360 0.0 0.0 0.00 0.00 0.00 78
20260901022423 79 360 0.0 0.0 0.00 0.00 0.00 76
20260901015422 83 360 0.0 0.0 0.00 0.00 0.00 64
20260901012421 83 360 0.0 0.0 0.00 0.00 0.00 64
20260901005420 83 360 0.0 0.0 0.00 0.00 0.00 64
20260901002419 88 360 0.0 0.0 0.00 0.00 0.00 56
20260831235418 90 360 0.0 0.0 0.00 0.00 0.00 51
20260831232417 89 360 0.0 0.0 0.00 0.00 0.00 100
20260831225416 89 360 0.0 0.0 0.00 0.00 0.00 54
20260831222415 89 360 0.0 0.0 0.00 0.00 0.00 53
20260831215414 90 360 0.0 0.0 0.00 0.00 0.00 49
20260831212413 93 191 0.9 1.7 0.00 0.00 0.00 45
20260831205412 95 253 0.9 1.7 0.00 0.00 0.00 39
20260831202411 94 326 1.7 1.7 0.00 0.00 0.00 43
20260831195410 93 269 2.6 2.6 0.00 0.00 0.00 46
20260831192409 92 287 3.5 3.5 0.00 0.00 0.00 44
20260831185408 90 284 2.6 2.6 0.00 0.00 0.00 48
20260831182407 90 319 2.6 3.5 0.00 0.00 0.00 49
20260831175406 90 335 2.6 2.6 0.00 0.00 0.00 50
20260831172405 88 328 3.5 3.5 0.00 0.00 0.00 56
20260831165404 89 284 4.3 4.3 0.00 0.00 0.00 52
20260831162403 89 259 1.7 2.6 0.00 0.00 0.00 54
20260831155402 88 298 2.6 2.6 0.00 0.00 0.00 57